Theta_e
321 322 326 326 327 327 327 330 327 325 325 323 319 320 317 317 318 315 315 314 316 314 310 312 313 313 315 317 317 317 314 318 322 320 323 316 305 304 303 305 310 312 315 317 319 320 321 323 323 324 325 325 326 326 327 328 330 330 331 331 332 333 334 334 335 336 336 337 337 337 337 337 338 338 338 338 339 339 339 340 339 340 340 339 340 340 340 341 341 340 339 339 339 338 337 338 338
322 324 326 326 325 327 329 331 331 327 326 320 315 319 315 314 317 317 318 317 317 313 311 312 312 312 312 312 313 315 315 313 313 313 313 309 305 302 302 305 308 310 313 315 317 318 319 321 322 322 322 322 323 323 324 325 326 327 328 328 329 330 330 331 332 333 333 335 335 335 336 336 337 337 337 337 338 338 338 338 338 339 339 339 340 339 339 340 340 341 340 339 339 339 337 338 339
323 325 325 326 325 325 331 329 328 327 325 321 317 320 316 314 318 318 318 315 314 311 310 311 312 311 310 313 312 316 317 310 310 311 308 308 308 301 300 303 305 309 310 313 315 315 317 318 320 320 319 320 320 320 321 321 322 323 324 325 326 326 327 327 328 329 329 330 331 332 333 334 334 335 335 335 336 337 337 337 337 337 338 338 339 339 339 339 339 339 340 339 339 340 338 337 337
322 325 324 326 325 328 343 335 330 329 323 323 320 320 321 318 317 316 315 313 311 310 311 312 312 309 310 316 312 314 316 310 310 311 307 306 305 300 299 300 302 306 309 311 312 313 314 315 317 317 317 317 317 317 317 318 319 319 320 321 322 323 323 324 325 325 326 327 328 328 329 331 331 331 331 333 333 334 335 335 336 336 337 337 337 338 338 338 339 339 339 339 339 340 340 338 337
321 323 321 326 328 327 338 329 327 327 319 324 320 318 323 319 315 313 312 311 309 309 311 313 314 309 308 312 310 314 314 308 308 308 305 303 302 299 297 297 299 303 306 308 309 310 310 311 313 313 314 313 313 313 314 315 315 316 316 317 318 318 319 320 321 321 322 323 324 324 325 327 327 328 328 329 330 331 332 333 334 335 335 336 336 336 337 337 338 338 338 338 339 339 339 339 338
320 320 319 321 321 319 324 321 321 322 319 325 321 318 320 315 313 313 311 310 309 309 310 312 314 311 310 309 307 310 309 308 307 305 303 302 300 299 297 296 297 299 300 302 304 305 305 305 306 306 307 307 308 307 308 309 309 311 311 313 313 314 315 315 317 317 318 319 320 321 321 322 323 324 324 325 325 326 328 330 331 332 332 334 335 335 335 336 337 338 338 338 338 338 338 338 338
320 322 323 322 318 320 327 326 324 323 317 317 319 318 315 313 311 311 311 311 311 310 310 311 310 313 314 308 307 307 306 308 307 305 302 300 299 298 297 296 296 296 296 298 299 299 299 299 299 300 301 301 301 301 302 302 303 303 304 305 306 307 308 309 311 312 313 314 315 316 317 318 319 320 321 321 322 323 324 325 327 328 329 330 331 333 334 334 335 336 336 337 336 337 337 336 337
320 323 326 329 329 328 331 327 324 323 315 311 314 316 314 313 311 311 313 312 313 311 311 310 308 316 314 307 310 307 305 307 305 304 301 299 298 297 296 295 296 295 296 296 296 297 297 297 297 297 298 298 298 298 298 298 298 299 299 299 300 300 300 302 303 304 306 307 308 309 311 313 314 315 317 317 318 319 320 321 322 323 326 327 328 330 331 332 333 334 334 335 335 335 335 335 335
317 320 323 329 332 330 329 322 318 318 316 315 314 315 316 312 310 312 312 313 314 313 312 309 309 314 311 307 310 306 304 305 303 302 299 298 297 296 295 295 295 295 295 296 296 296 297 297 297 297 297 297 297 297 297 297 297 297 298 297 298 297 297 297 297 298 299 300 301 302 304 305 307 308 309 311 313 314 315 316 317 319 321 323 325 327 328 329 330 331 332 332 333 333 334 334 334
317 318 323 330 329 325 322 319 319 319 315 317 314 314 316 310 310 313 313 313 313 315 311 308 309 311 310 309 308 304 304 303 301 300 299 298 296 295 295 294 295 295 295 296 296 296 296 297 296 296 296 297 297 297 297 296 297 297 297 297 297 297 296 297 297 297 297 297 297 297 298 299 300 301 302 303 305 306 308 310 311 314 316 318 319 322 323 325 327 328 329 330 330 330 331 332 332
324 323 327 333 330 323 321 322 324 323 317 316 315 315 314 308 311 313 313 314 312 314 310 307 312 310 308 309 307 304 304 301 300 299 298 298 296 295 295 294 294 295 295 295 296 296 296 296 296 296 296 296 296 296 296 296 296 296 296 296 296 296 296 296 296 296 296 296 296 296 296 296 297 297 297 298 299 299 301 302 303 306 308 311 313 315 317 319 321 323 324 325 326 327 328 330 330
324 328 337 336 329 325 325 326 324 327 325 317 315 315 311 307 312 314 313 315 312 313 311 309 311 310 310 310 307 304 302 301 298 298 297 297 296 295 294 294 295 294 295 295 295 295 295 296 296 296 296 296 296 296 296 296 296 295 295 295 295 295 295 295 295 296 296 296 296 296 296 296 296 296 296 296 297 297 297 297 298 299 300 302 304 306 309 311 314 316 318 319 321 322 324 326 327
328 332 338 326 321 324 323 324 322 325 326 319 315 311 308 309 313 314 315 314 312 313 312 308 307 310 314 309 305 302 302 301 297 297 297 296 295 295 295 294 294 295 295 294 295 295 295 295 295 295 296 295 295 295 295 295 295 295 295 295 295 295 295 295 295 295 295 295 295 295 295 295 295 295 295 295 296 296 296 296 296 296 296 297 298 299 301 303 305 308 311 313 315 316 318 321 323
330 332 335 323 316 322 323 322 320 319 320 319 315 309 308 311 312 312 314 315 313 311 309 305 305 312 312 307 305 302 302 301 297 297 296 296 295 294 295 294 294 294 294 294 294 294 294 294 295 295 295 295 295 295 295 295 295 294 295 295 295 295 295 295 295 295 295 295 295 295 295 295 295 295 295 295 295 295 295 295 296 296 295 296 295 296 296 297 298 300 303 305 308 311 313 315 318
323 328 333 329 318 319 320 319 319 318 320 319 312 309 312 310 307 309 312 316 314 306 304 304 305 311 311 310 311 303 302 302 298 297 296 295 295 295 295 294 295 294 294 294 293 294 294 294 294 294 294 294 294 294 294 294 294 294 294 294 294 295 295 295 295 295 295 295 295 295 295 295 295 295 295 295 295 295 295 295 295 295 295 295 295 295 295 295 295 296 297 298 301 304 307 310 312
320 329 333 329 320 317 317 317 317 318 320 317 310 310 313 308 305 309 307 308 311 304 304 307 304 307 308 309 309 303 303 302 298 298 297 295 294 294 295 294 295 294 294 293 293 293 293 294 293 294 294 294 294 294 294 294 294 294 294 294 294 294 294 295 295 295 295 295 295 295 295 295 295 295 295 295 295 295 295 295 295 294 294 294 295 295 295 295 295 295 295 295 296 298 300 303 306
323 333 336 326 321 321 319 318 318 320 322 316 309 310 314 311 306 305 301 303 309 305 304 305 301 301 304 304 303 302 303 301 299 298 296 296 294 294 294 294 295 294 294 293 293 293 293 293 293 294 293 293 294 294 294 294 294 294 294 294 294 294 294 294 294 295 295 295 295 295 295 295 295 295 295 295 295 295 295 295 295 294 294 294 294 294 294 295 295 295 295 295 295 295 296 297 300
330 335 331 320 320 324 322 320 317 318 320 315 311 311 314 314 309 304 304 306 306 305 304 303 301 299 299 300 300 301 302 300 298 298 296 296 295 295 294 294 294 294 294 293 292 293 293 293 293 293 293 294 294 294 294 294 294 294 294 294 294 294 294 294 294 295 295 295 295 295 295 295 295 295 295 295 295 295 295 295 295 295 294 294 294 294 294 294 294 294 294 294 294 294 295 295 296
332 333 324 319 325 323 319 320 316 315 316 315 312 310 312 313 310 306 308 311 306 307 307 304 304 302 299 298 299 300 300 299 298 297 296 296 295 295 294 294 294 294 293 293 292 292 293 293 293 293 293 293 294 294 294 294 294 294 294 294 294 294 294 294 294 294 294 294 294 295 295 295 295 295 295 295 295 295 294 294 294 294 294 294 294 294 294 294 294 294 294 294 294 294 294 295 295
324 326 323 324 329 322 316 318 317 315 312 314 312 309 310 310 308 307 310 313 307 309 310 307 308 305 301 298 297 299 298 298 297 296 296 295 295 295 295 294 293 293 293 293 292 292 292 292 293 293 293 293 293 294 294 294 294 294 294 294 294 294 294 294 294 294 294 294 294 294 294 294 294 295 295 295 295 295 295 294 294 294 294 293 293 294 294 294 294 294 294 294 294 294 294 294 294
316 319 322 321 321 318 316 316 317 316 310 313 314 309 311 308 307 308 310 312 309 309 309 309 311 306 301 298 297 297 297 297 296 296 295 295 296 295 295 294 293 293 293 293 293 292 292 292 292 293 293 293 293 293 294 294 294 294 294 294 294 294 294 294 294 294 294 294 294 294 294 294 294 294 294 294 294 294 294 294 294 294 294 293 293 293 293 293 293 293 293 293 293 293 293 293 293
313 314 316 317 315 314 316 315 315 315 309 311 314 311 311 308 307 309 309 312 312 310 308 308 309 305 300 298 297 296 296 296 295 295 295 295 295 295 295 294 293 293 293 293 292 292 292 292 292 292 292 293 293 293 293 293 293 294 294 293 293 293 293 293 293 294 293 294 294 294 294 294 294 294 294 294 294 294 294 294 294 294 294 294 293 292 292 292 292 292 292 292 292 292 292 292 292
314 314 313 316 315 314 315 315 314 313 312 314 314 311 310 309 311 309 307 310 312 310 308 306 304 301 299 298 297 297 297 296 295 294 294 295 295 295 295 294 294 293 293 293 292 292 292 292 292 292 292 292 293 293 293 293 293 293 293 293 293 293 293 293 293 293 293 293 293 293 293 293 293 293 293 293 293 293 293 293 293 293 293 293 293 293 293 292 291 291 291 291 291 291 291 292 292
316 316 315 315 313 314 315 312 314 313 313 314 310 307 310 313 312 309 308 308 310 307 301 300 299 298 298 297 297 297 297 296 295 295 294 295 295 295 295 294 294 293 293 293 292 292 292 292 292 292 292 292 293 293 293 293 293 293 293 293 293 292 292 292 292 292 292 292 292 292 292 292 292 292 292 292 292 292 292 292 292 291 291 292 292 292 292 292 292 291 291 290 290 290 291 291 292
317 316 315 314 312 317 316 311 314 313 311 309 306 309 312 312 308 308 310 308 308 305 299 298 297 297 297 297 297 296 296 296 295 294 294 295 295 295 295 295 294 293 293 292 292 292 292 292 291 292 292 292 292 292 292 292 292 292 292 292 292 292 292 291 291 291 291 291 290 290 290 291 291 291 291 291 292 291 291 291 291 291 290 290 290 291 291 291 292 292 292 291 290 290 290 291 293
316 315 316 315 314 316 313 311 314 311 309 306 307 312 311 308 306 308 310 308 307 304 302 301 298 298 298 297 297 296 296 295 294 294 294 295 295 295 295 295 294 293 293 293 292 292 292 291 291 291 292 292 292 292 292 292 292 292 292 292 291 291 291 291 290 290 290 290 289 289 289 290 290 290 290 291 291 291 291 291 291 290 290 290 289 289 289 289 290 291 291 291 290 290 290 290 291
314 316 316 314 313 313 311 311 313 310 309 307 308 312 310 307 306 309 311 306 303 304 304 300 299 299 297 297 296 295 295 295 295 294 294 295 294 294 295 295 294 293 293 293 292 292 292 291 291 291 291 292 291 291 291 291 291 291 291 291 290 290 290 290 289 289 289 289 288 288 288 289 289 289 289 290 290 290 290 290 290 290 290 289 289 288 288 288 288 289 289 290 290 290 289 290 290
312 313 313 312 313 312 309 310 310 308 310 308 308 310 309 307 306 310 311 302 301 306 305 299 299 299 296 297 296 295 295 295 295 294 295 295 294 295 295 295 294 293 292 292 292 292 292 291 291 291 291 291 291 291 291 291 291 291 290 290 290 290 289 289 289 289 289 288 288 287 287 288 288 288 289 289 289 289 289 289 289 289 289 289 289 288 288 288 287 287 287 288 289 289 289 289 290
311 311 312 315 318 315 309 309 309 307 310 309 308 309 310 309 308 311 308 300 300 305 305 300 298 298 297 296 296 296 295 294 294 294 295 294 295 295 295 295 294 293 292 292 292 292 292 291 291 291 290 291 290 291 291 291 290 290 290 290 290 290 289 289 289 289 288 288 287 287 287 287 287 288 288 288 288 288 288 288 288 288 288 288 288 288 288 288 287 286 286 286 286 287 288 289 289
310 311 313 318 323 319 309 307 307 307 310 309 309 313 315 312 309 310 304 299 302 305 304 300 298 297 296 296 295 296 295 294 294 294 294 294 295 295 295 295 294 293 292 292 292 291 291 291 291 290 290 290 290 291 291 290 290 290 290 290 290 289 289 289 289 289 288 288 287 287 286 286 286 287 287 287 287 287 287 287 287 287 287 287 287 287 287 287 286 286 286 285 285 286 287 288 290
313 311 317 321 319 321 316 309 309 308 309 308 309 315 317 315 314 311 302 299 304 307 305 299 297 297 296 296 295 296 295 294 294 294 294 295 295 295 295 295 294 293 292 292 292 291 291 291 290 290 290 290 290 291 290 290 289 289 290 289 289 289 289 288 288 288 287 287 286 286 285 285 285 286 286 287 286 286 286 286 286 286 286 286 286 286 286 285 285 285 285 285 285 285 286 287 289
320 312 321 326 317 323 323 312 311 311 309 307 309 315 316 313 315 310 300 298 303 307 305 299 298 297 295 296 295 295 296 294 294 294 294 295 295 296 295 295 295 293 292 292 292 291 291 290 290 290 290 290 290 290 290 289 289 289 289 289 289 288 288 288 287 287 287 286 286 285 284 284 284 285 285 286 286 285 285 285 285 285 285 285 285 285 285 284 284 284 284 284 284 285 285 286 287
329 316 320 329 320 321 321 312 311 311 309 308 309 315 316 314 313 305 297 298 301 304 304 300 298 297 296 295 295 295 296 295 294 293 294 295 295 295 295 295 294 293 292 292 291 291 290 290 290 290 290 290 290 290 289 289 289 289 289 288 288 288 287 287 287 286 286 286 285 284 284 283 284 284 285 285 285 285 285 284 284 284 284 284 284 284 284 284 284 283 284 284 284 285 285 285 286
331 321 320 326 321 316 318 317 311 307 309 310 309 310 312 313 312 307 301 298 301 303 303 301 299 297 296 295 295 295 295 295 294 294 294 294 295 295 295 295 294 293 292 292 291 291 290 290 290 290 290 290 290 289 289 289 288 288 288 288 287 287 287 287 287 286 286 286 285 284 284 284 284 284 285 286 286 286 285 285 284 284 283 283 283 283 284 284 283 283 283 284 284 284 285 285 285
324 323 322 323 320 315 317 319 312 307 308 310 310 310 309 310 309 310 306 299 302 305 302 301 300 298 297 296 295 295 295 295 295 294 294 294 294 294 294 293 293 292 292 291 291 290 290 290 289 289 289 289 289 289 288 288 288 288 287 287 287 287 286 286 286 286 286 286 285 284 283 284 284 285 285 286 286 286 285 285 284 284 283 283 282 282 283 283 283 283 283 283 284 283 284 284 284
322 323 324 323 320 317 317 316 311 306 308 309 308 308 309 309 308 309 308 302 302 304 301 300 300 298 297 296 296 296 295 295 295 294 294 294 294 294 293 293 292 292 292 291 291 290 290 290 289 289 289 289 289 288 287 287 287 287 287 287 287 287 286 286 286 286 285 285 284 283 283 284 284 285 285 286 286 285 284 284 284 284 283 283 282 282 282 282 282 282 283 283 282 282 283 283 283
319 320 320 319 317 316 315 313 310 306 308 311 309 308 308 307 307 307 307 304 304 303 301 300 300 299 298 297 296 296 295 295 295 294 294 294 294 294 293 292 292 292 291 291 290 290 289 289 289 289 289 288 288 287 287 287 287 287 287 287 287 286 286 286 286 285 285 284 284 283 283 283 284 284 284 285 284 283 283 283 283 283 283 283 282 281 281 281 281 281 281 281 281 281 282 282 282
314 318 317 317 316 316 313 309 309 308 308 311 310 309 309 307 306 306 306 306 306 305 303 301 301 300 299 297 297 296 296 296 296 294 294 294 294 294 293 292 292 291 291 291 290 290 289 289 289 288 288 288 287 287 287 287 287 287 287 287 286 286 286 286 286 285 284 284 284 283 283 283 283 283 283 283 283 282 282 282 282 282 282 282 281 281 281 280 280 280 280 280 280 281 281 282 282
315 317 316 317 316 315 314 309 308 307 307 312 312 310 309 308 307 307 307 307 308 307 306 304 302 301 300 298 298 297 296 296 296 295 294 293 293 293 292 291 291 291 291 291 290 290 289 289 288 288 288 287 287 287 287 287 287 286 286 286 285 285 285 285 285 285 285 285 284 283 284 283 283 282 282 283 282 282 282 282 282 281 281 281 281 280 280 280 280 279 279 279 280 280 281 281 282
316 317 318 320 316 316 317 313 309 308 307 310 311 308 308 308 307 308 308 308 308 308 307 306 303 303 302 300 299 298 297 296 296 295 294 293 292 292 291 290 290 290 290 291 290 290 289 289 288 288 288 287 287 287 286 286 286 285 285 285 284 285 285 285 285 285 284 284 284 284 284 283 282 283 283 283 283 283 282 282 282 281 281 280 280 279 279 279 279 279 279 279 280 280 281 282 282
319 317 316 319 317 317 318 315 311 311 310 308 309 311 312 313 310 309 309 307 307 306 306 306 304 303 303 302 301 299 298 297 296 295 294 293 292 291 290 290 290 290 290 290 290 290 289 289 288 288 288 287 287 286 286 285 285 284 284 283 284 284 284 284 284 284 283 283 283 283 283 282 282 283 283 283 283 283 282 282 281 280 280 280 279 278 278 278 278 278 278 279 279 280 280 281 281
323 321 317 317 318 317 314 313 313 317 318 309 309 314 315 317 315 312 312 311 312 309 307 307 304 302 302 302 301 300 299 298 297 296 295 294 292 291 290 289 289 289 290 290 290 290 289 289 288 288 288 287 287 286 285 285 284 284 283 283 283 282 282 282 282 282 281 281 281 281 282 282 282 282 283 283 283 282 281 280 279 279 278 278 278 278 278 278 278 278 278 278 278 278 278 279 279
321 319 316 314 313 313 312 312 313 321 321 310 310 317 316 315 316 318 319 317 318 316 313 312 307 304 302 301 301 300 299 298 297 296 295 294 293 291 290 289 289 289 289 290 290 290 289 289 288 288 287 287 286 286 285 284 284 283 283 282 282 282 282 282 282 281 281 281 281 282 282 283 282 282 283 283 283 282 281 280 279 278 278 278 277 277 277 277 277 277 277 277 277 277 277 278 278
322 315 314 315 313 314 315 313 313 316 313 309 312 314 313 314 314 316 317 315 315 313 313 313 310 308 304 302 301 300 300 298 297 296 295 295 293 292 290 289 289 289 289 290 290 290 289 289 288 288 287 287 286 286 285 284 284 283 283 282 281 281 281 281 281 280 280 281 281 282 282 282 282 282 283 283 283 282 281 280 279 278 278 278 277 277 277 277 277 277 277 276 277 277 277 277 278
319 309 309 314 314 316 315 312 312 311 309 313 315 309 311 316 314 313 311 311 314 313 312 312 311 311 307 304 301 300 300 298 297 297 296 295 293 292 291 290 289 289 289 290 290 290 289 288 288 288 287 286 286 285 284 284 283 283 282 281 281 281 280 280 280 280 280 279 280 280 280 280 281 282 282 282 282 281 280 279 278 278 278 277 277 277 276 276 276 276 276 276 276 276 277 277 277
311 305 308 310 310 311 311 311 312 312 312 316 315 310 312 316 316 314 310 310 315 315 312 311 310 311 310 307 303 300 299 298 298 297 296 295 294 292 291 290 289 288 289 290 290 290 289 288 288 287 287 286 286 285 284 284 283 282 282 281 280 280 280 279 279 279 279 278 278 279 278 278 280 281 280 280 280 279 279 278 277 277 277 277 276 276 276 276 276 276 276 276 276 276 276 276 276
305 308 315 315 311 307 309 312 311 314 318 318 314 311 312 315 316 315 312 315 320 318 315 312 311 312 312 309 304 301 299 298 297 296 296 294 293 292 291 289 288 288 289 290 290 290 289 288 288 287 287 286 285 285 284 283 283 282 281 280 280 280 279 279 279 279 279 278 278 277 277 279 280 279 279 279 279 278 278 277 277 276 276 276 276 276 276 275 275 275 275 275 275 275 275 275 275
307 315 319 319 317 312 314 315 313 317 322 318 312 308 309 314 315 313 313 314 316 318 319 320 319 318 317 312 305 300 299 298 297 296 296 294 292 291 289 289 288 287 288 289 289 289 289 288 288 287 287 286 285 285 284 283 282 282 281 280 279 279 279 278 278 278 278 277 277 277 277 279 280 279 278 278 278 278 277 277 276 276 276 276 276 276 275 275 275 275 275 275 275 275 275 275 275
310 317 320 321 320 320 322 320 316 320 320 313 307 307 308 311 312 311 312 313 313 313 314 320 324 325 324 318 308 302 299 298 297 296 295 294 292 290 288 288 288 287 288 288 288 289 288 288 288 287 287 286 285 285 284 283 282 281 280 280 279 279 278 278 277 277 277 276 276 276 277 277 278 278 277 277 277 277 276 276 276 276 276 276 276 275 275 275 274 274 274 274 274 274 274 275 275
309 316 321 322 322 326 330 325 316 316 317 310 304 308 311 310 311 311 310 310 313 312 309 312 319 324 324 316 308 305 301 297 296 296 294 293 292 290 288 288 288 287 287 287 288 288 288 288 287 287 286 285 285 284 283 283 282 281 280 279 279 278 278 278 277 276 276 276 275 275 276 276 276 276 276 276 276 276 275 275 275 275 275 275 274 274 274 274 274 274 274 274 274 274 274 274 274
308 314 316 318 325 330 331 328 319 316 320 314 305 310 315 312 312 315 312 309 310 311 309 308 310 312 311 307 305 306 302 297 295 294 294 293 292 290 289 288 288 287 287 287 288 288 288 288 287 287 286 285 285 284 283 282 281 281 280 279 279 278 278 277 277 277 276 276 275 275 276 276 276 276 276 276 276 275 274 274 274 274 274 274 274 274 274 274 274 273 274 274 274 274 274 274 274
309 311 313 316 321 320 318 319 316 315 320 316 309 312 315 311 311 315 315 312 311 311 309 308 310 308 305 305 305 305 302 297 294 294 293 292 291 290 289 288 288 287 287 287 287 288 288 288 287 287 286 285 284 283 283 282 281 280 279 279 278 278 277 277 277 277 276 275 275 275 276 276 276 276 277 276 275 275 274 274 274 273 273 273 273 273 273 273 273 273 273 273 273 274 274 274 274
309 310 314 314 312 313 318 317 310 310 316 317 316 315 312 309 311 312 311 311 312 311 308 308 310 307 305 306 305 304 302 298 295 293 293 292 290 289 289 288 288 287 287 287 287 288 288 288 287 287 285 284 284 283 282 281 281 280 279 279 278 278 277 277 277 277 276 275 276 276 276 276 277 277 276 276 275 274 274 274 273 273 273 273 273 273 273 273 273 273 273 273 273 273 273 273 273
311 316 315 310 308 312 318 319 317 316 317 318 319 315 311 312 313 310 310 311 311 310 307 308 308 306 305 306 305 304 302 298 295 293 292 291 290 289 289 288 288 287 287 287 287 288 288 288 287 286 285 284 283 282 281 281 280 279 279 279 278 277 277 276 276 276 275 276 277 277 277 277 277 277 276 275 274 274 274 273 272 272 272 272 272 272 272 272 273 273 273 273 273 273 273 273 273
308 313 308 308 314 316 315 317 319 319 317 320 321 314 312 313 312 312 312 314 313 310 307 307 306 305 305 305 304 302 300 298 295 293 291 291 290 289 288 288 287 287 287 287 287 288 288 287 287 286 285 284 283 282 281 280 279 279 279 278 277 277 276 276 276 275 275 276 277 277 277 277 277 276 275 274 274 273 273 272 272 272 272 272 272 272 272 272 272 272 272 272 273 273 273 273 273
303 305 303 306 313 316 316 315 316 318 317 317 316 313 313 314 316 318 314 313 314 312 312 309 306 305 304 303 304 302 300 298 295 293 291 291 290 288 288 288 287 287 287 287 287 287 287 286 285 284 283 283 282 281 280 279 279 278 278 277 277 276 276 276 276 275 276 277 277 276 276 276 275 275 274 273 273 272 272 272 271 271 271 271 271 271 271 271 271 271 272 272 272 272 272 272 272
305 306 306 306 307 311 314 312 313 318 317 317 315 313 313 313 316 319 315 314 312 312 315 314 309 307 304 303 303 302 301 298 295 293 292 290 289 287 287 287 287 286 286 286 286 286 286 285 285 284 283 282 281 280 279 278 278 277 277 276 276 276 276 276 275 276 277 277 276 276 276 275 274 274 273 273 272 271 271 271 270 270 270 270 270 270 270 270 270 271 271 271 271 272 272 272 272
307 308 309 307 307 310 312 311 312 313 315 318 317 313 312 313 316 318 317 317 314 311 313 315 314 314 311 307 302 301 301 298 295 293 291 290 289 287 286 286 286 286 285 285 285 285 285 284 283 283 282 281 280 279 278 278 277 276 276 276 276 276 276 276 276 276 277 276 276 276 275 274 273 273 272 271 270 270 270 269 269 269 269 269 269 269 269 269 270 270 270 270 270 271 271 271 271
Wind_Speed
2 3 3 2 2 4 1 3 1 2 3 2 0 1 1 1 1 2 2 1 1 1 2 0 2 2 2 3 6 5 2 2 3 2 1 3 5 5 5 6 7 6 6 6 7 8 9 10 10 10 10 11 11 11 11 10 9 9 8 8 8 8 8 9 9 10 11 12 11 10 11 11 11 11 11 11 10 10 10 10 10 10 11 11 12 12 12 12 11 11 12 12 13 13 10 10 11
2 2 1 2 1 2 1 2 2 2 4 1 1 2 1 0 1 4 5 3 2 2 2 4 6 5 5 5 6 4 2 1 1 1 1 6 6 6 7 7 7 7 8 8 8 9 11 12 12 11 11 11 11 11 11 11 10 10 10 9 9 8 8 8 8 8 9 11 11 10 10 10 11 11 11 11 10 10 10 10 10 10 10 11 12 13 13 13 13 13 12 12 14 15 13 12 12
1 1 1 2 0 2 1 2 1 0 3 1 2 2 1 2 4 4 5 5 7 6 3 3 4 4 3 3 1 1 1 1 0 2 1 6 5 4 9 9 8 8 8 8 9 10 12 13 12 12 11 10 11 10 10 10 10 10 10 10 9 9 9 8 7 7 8 8 10 9 10 11 10 10 11 11 11 10 10 10 10 10 10 10 11 13 13 13 15 15 14 13 13 14 14 14 14
1 1 1 2 1 2 3 3 1 3 2 2 2 3 2 4 5 3 4 7 8 6 2 1 1 1 1 2 1 1 2 1 1 3 2 5 6 6 10 10 10 9 8 8 9 11 13 12 11 12 12 11 11 10 10 10 10 9 9 9 9 9 9 9 8 8 8 8 9 9 9 11 10 10 10 10 11 11 10 10 10 10 10 10 11 12 12 13 14 15 15 14 14 13 13 13 15
2 1 1 2 1 1 2 2 2 2 2 3 1 3 4 5 5 5 6 7 6 4 2 2 2 1 0 1 1 1 2 2 2 5 5 6 9 10 12 12 11 10 10 10 10 12 13 12 11 12 12 12 11 11 11 10 10 10 9 9 9 8 8 8 8 8 8 8 8 8 8 9 9 9 9 9 10 10 9 9 10 9 10 10 11 12 11 12 13 14 14 14 15 15 14 14 14
4 4 4 4 2 1 2 2 2 1 3 4 2 3 5 6 7 9 7 3 3 3 3 2 3 2 0 1 1 1 1 3 5 7 8 10 11 12 13 13 13 12 12 12 12 13 14 12 12 12 12 13 13 12 12 12 11 11 10 10 9 9 8 8 8 8 8 8 8 8 8 8 8 8 8 9 9 9 8 8 9 9 9 10 11 12 12 12 12 13 13 13 14 15 15 15 15
5 2 4 4 1 2 2 2 3 2 2 4 2 3 7 8 7 9 7 3 2 2 3 2 4 5 1 1 1 1 1 4 6 9 11 13 13 13 13 13 14 14 14 13 13 14 15 13 13 13 13 13 13 13 12 12 12 12 11 11 10 10 9 9 8 8 8 8 8 7 8 8 8 8 8 9 9 10 10 9 10 10 10 10 11 11 12 13 13 13 13 13 13 14 14 14 14
3 1 1 3 1 3 3 2 3 2 1 2 2 3 7 9 8 9 9 5 3 3 2 4 3 3 1 0 1 1 1 7 8 12 15 16 15 14 13 13 14 15 15 14 14 14 15 14 13 13 13 12 12 12 11 11 11 11 11 11 11 11 11 10 9 9 8 8 8 7 7 8 8 8 9 9 9 10 10 10 11 10 10 10 10 10 10 11 12 13 12 12 13 13 14 13 13
4 2 0 2 1 2 2 1 1 2 2 3 3 2 4 7 7 7 9 4 1 3 4 5 3 1 2 2 1 1 3 11 14 16 17 16 15 14 14 13 14 15 15 15 14 13 14 14 13 12 12 12 12 11 11 11 10 10 10 10 10 10 10 10 10 10 9 9 9 8 8 8 8 9 9 10 10 10 11 11 11 11 12 11 11 11 10 10 10 11 12 12 13 14 14 14 14
4 3 1 2 2 2 2 1 1 2 3 3 4 4 4 6 5 5 8 4 2 5 4 3 1 1 4 4 1 1 6 14 16 17 17 16 15 14 14 14 14 15 14 14 13 13 12 13 12 12 12 12 12 11 11 11 11 11 11 10 10 10 10 10 10 10 10 10 10 10 9 9 9 9 10 10 10 11 11 11 11 12 12 13 13 13 13 13 13 13 14 14 15 16 16 16 16
2 3 2 3 3 1 2 3 3 2 3 3 3 4 5 7 5 3 4 3 2 4 4 2 2 4 4 2 1 2 12 17 17 19 17 16 15 14 14 14 14 14 14 13 13 12 12 12 12 12 11 11 11 11 11 11 11 11 11 11 11 11 11 10 10 10 10 11 11 11 10 10 10 10 11 11 11 12 12 12 12 12 12 13 14 14 15 16 16 16 17 17 17 17 17 17 17
1 2 3 3 2 2 2 2 3 3 4 2 3 4 4 8 6 5 5 4 4 3 4 4 3 5 4 1 1 4 14 18 18 19 18 17 16 14 14 14 14 14 13 13 12 12 12 11 11 11 11 10 10 10 11 11 11 11 11 12 12 12 12 11 11 11 10 11 11 11 11 11 11 11 11 11 12 12 12 12 12 12 13 13 13 14 15 16 17 17 18 19 19 19 18 18 18
2 2 4 2 2 1 2 2 3 2 4 3 4 3 5 8 5 7 7 4 6 5 4 6 4 4 3 2 1 4 12 19 20 19 18 18 16 15 14 14 14 13 13 12 12 12 11 11 11 11 11 11 11 11 11 12 12 12 12 12 12 12 13 13 13 12 12 12 11 11 11 12 12 12 12 12 12 12 12 12 12 13 13 14 14 14 15 15 16 17 18 19 20 20 20 20 21
2 3 4 2 1 1 3 1 2 2 4 4 3 2 4 3 3 5 8 5 8 6 2 5 7 3 2 2 1 2 13 23 22 20 19 18 16 15 14 14 14 13 13 12 12 12 12 12 11 11 11 11 11 11 12 12 12 12 13 13 13 13 13 13 13 13 13 13 13 13 13 13 13 13 13 13 14 14 14 14 13 13 14 14 15 15 15 15 16 17 17 18 19 20 21 22 23
3 2 4 3 2 0 3 1 1 3 4 3 2 3 3 1 1 4 6 6 7 3 1 4 6 2 3 6 4 6 19 27 24 21 20 18 17 16 15 15 14 13 12 12 12 12 12 12 12 12 11 12 12 12 12 12 12 12 13 13 13 13 13 13 13 13 14 14 14 14 15 15 15 15 15 15 15 15 16 16 15 15 15 15 15 15 16 16 16 17 17 18 18 19 21 22 23
2 3 4 3 2 1 3 2 1 1 4 3 1 3 4 2 1 2 2 2 2 1 1 3 4 1 3 6 3 10 27 30 26 23 21 19 17 17 16 15 14 13 12 11 12 11 12 11 11 12 11 12 11 12 12 12 12 12 12 13 13 13 13 13 13 14 14 14 14 14 15 15 16 16 16 17 17 17 17 17 17 17 17 17 17 17 16 17 17 17 18 18 19 20 20 21 22
2 4 4 2 2 3 4 4 4 3 4 3 2 4 6 1 1 1 1 3 3 2 2 2 2 1 3 4 4 15 33 31 27 25 22 21 18 17 16 15 14 13 12 11 11 11 11 11 11 11 11 11 11 11 11 11 12 12 12 12 13 13 13 13 14 14 14 15 15 15 16 16 17 17 18 18 18 19 19 19 19 19 19 19 19 19 18 18 18 18 19 19 20 21 21 21 21
3 3 3 1 3 3 5 7 7 4 2 3 5 5 6 3 2 2 1 2 3 1 3 2 3 2 3 5 4 23 34 32 29 27 24 22 19 17 15 14 14 13 12 10 9 9 9 9 10 9 10 10 9 9 10 10 10 11 11 11 12 12 12 12 13 13 14 14 15 15 16 17 18 19 19 20 20 20 20 20 20 20 20 21 20 20 21 21 20 20 20 20 21 22 22 22 22
3 3 2 2 5 4 5 7 6 3 0 3 5 3 4 4 5 4 2 2 1 3 4 2 4 4 1 3 14 28 33 32 30 28 25 23 20 18 16 14 13 13 12 10 9 8 8 8 8 8 8 8 7 8 8 9 9 9 10 10 11 11 11 12 12 13 13 14 14 15 15 16 17 18 19 20 21 21 21 22 22 22 22 22 22 22 22 22 23 22 22 22 22 23 23 23 24
1 3 2 4 5 4 4 5 6 4 2 4 4 3 2 4 5 4 3 2 3 6 7 4 8 9 5 7 18 26 28 29 28 27 25 23 21 20 19 17 16 15 13 11 9 8 7 7 7 7 7 7 6 7 7 7 8 8 8 9 10 10 10 11 12 12 13 13 14 15 15 16 16 17 17 18 19 20 22 22 23 23 23 24 24 24 25 25 25 25 24 24 24 25 25 25 25
1 4 3 4 2 2 4 6 6 4 3 4 4 3 2 3 4 4 5 4 4 8 10 12 14 12 9 7 15 24 25 25 25 25 23 22 21 20 20 19 17 15 13 11 9 8 7 6 6 5 5 5 5 6 6 6 7 7 7 8 9 9 9 10 10 11 11 12 13 14 14 15 15 16 17 18 19 20 21 22 23 24 25 26 26 26 27 27 28 28 28 27 27 27 27 27 27
1 0 3 4 3 1 3 5 4 4 4 4 5 4 3 3 2 5 9 8 7 6 9 14 12 10 13 13 17 20 21 22 23 23 23 23 22 21 21 19 17 16 14 12 9 8 6 6 5 4 4 4 5 5 6 6 6 6 7 8 8 8 9 10 10 10 11 11 12 12 13 14 15 16 17 18 19 19 20 20 21 22 23 25 26 27 28 29 29 29 30 30 29 29 28 27 27
1 2 3 3 3 2 2 3 4 4 6 4 5 3 3 4 4 4 10 14 8 2 4 7 7 11 17 19 18 16 17 20 23 25 25 25 25 25 24 22 20 18 16 13 10 8 6 6 4 3 3 3 4 4 5 5 5 6 6 7 7 8 8 9 9 10 11 11 12 13 14 15 16 17 18 19 20 20 21 21 21 21 21 22 23 25 27 29 30 31 31 31 31 30 29 29 28
3 1 3 2 3 5 3 2 3 5 6 4 3 3 4 7 5 0 8 17 9 1 1 3 7 15 18 15 13 15 19 21 23 25 26 27 28 27 26 24 21 18 17 14 11 9 7 6 5 4 3 3 3 3 3 3 4 4 5 5 6 7 8 8 9 10 10 11 12 13 14 15 17 18 19 20 21 21 22 22 23 22 22 21 21 22 24 26 28 30 31 32 32 31 31 30 28
3 2 3 1 2 6 3 1 3 4 3 1 4 3 5 7 2 1 11 16 8 3 2 5 9 14 14 12 12 14 16 19 21 23 25 26 27 26 25 23 21 19 18 16 13 10 8 7 5 5 4 3 3 3 3 3 3 3 4 5 6 7 7 8 9 9 9 10 11 12 14 15 16 18 19 20 21 22 22 23 23 23 23 22 22 23 23 24 25 27 29 31 32 32 31 30 27
2 4 4 2 3 6 4 3 2 2 2 3 3 6 6 3 1 6 14 11 5 4 5 6 10 10 11 11 12 13 13 17 22 23 24 25 25 25 24 24 23 21 19 17 15 12 9 8 7 6 5 4 3 3 3 2 2 3 4 4 5 6 7 8 8 8 9 10 10 12 14 15 16 17 19 20 21 22 22 23 23 23 24 24 25 25 25 24 24 24 25 27 30 31 31 31 29
3 5 4 3 3 5 3 4 3 1 2 5 5 7 6 3 2 7 8 2 5 7 5 6 10 10 11 10 11 14 14 19 24 23 23 24 25 26 26 25 24 22 20 18 16 13 10 8 8 7 6 5 4 4 3 2 2 2 3 4 5 6 7 7 7 8 8 9 10 12 14 15 16 17 18 19 20 21 22 23 23 24 25 25 26 26 27 26 25 24 24 24 26 29 30 31 30
2 3 2 3 3 4 2 4 5 1 2 6 7 5 4 3 2 10 4 3 5 7 6 7 9 9 9 10 10 12 14 20 24 23 24 27 28 29 28 27 26 23 21 20 17 14 12 10 10 8 6 6 5 4 3 2 2 1 2 3 4 5 6 6 7 8 8 9 10 12 14 15 15 17 18 19 20 21 21 22 22 23 23 24 25 26 26 27 26 26 26 25 25 25 27 29 29
1 3 1 5 6 3 3 3 3 2 2 5 6 3 5 5 11 12 2 4 4 6 7 6 8 8 7 9 8 8 12 18 21 24 27 28 29 30 29 28 27 25 22 20 18 15 14 12 11 9 8 7 6 5 4 3 2 1 1 2 3 4 5 6 7 7 8 9 10 11 13 14 15 16 17 19 20 20 21 21 21 21 22 23 24 25 26 26 26 27 28 28 26 24 24 26 27
0 2 1 3 6 3 3 1 1 2 3 4 4 4 7 10 17 11 3 6 5 5 7 6 7 7 6 8 7 7 11 16 22 26 27 27 29 30 29 28 27 25 23 21 19 17 15 14 12 10 9 9 7 6 5 4 3 1 0 1 2 3 5 5 6 7 8 8 9 11 13 14 14 16 17 18 19 20 20 21 21 21 22 23 24 24 25 25 26 27 28 28 26 22 21 22 23
1 1 2 2 2 3 5 1 2 3 2 3 4 4 9 9 13 9 4 7 8 8 8 6 7 7 7 8 8 8 11 18 22 24 26 27 30 30 29 28 27 26 24 23 21 18 17 15 13 11 10 9 7 6 6 4 3 1 1 2 2 3 4 4 5 6 7 8 9 11 12 14 14 15 17 18 19 20 20 21 21 22 22 23 24 24 24 24 24 25 26 27 25 21 21 21 21
3 1 3 2 0 4 8 3 5 4 1 2 4 3 10 11 8 4 4 6 7 9 8 7 9 9 9 8 8 8 9 16 20 22 27 29 30 30 30 29 28 28 26 24 22 19 17 15 14 12 10 9 8 7 6 5 3 2 2 2 2 3 4 4 5 6 7 8 9 10 12 13 14 15 17 19 20 20 21 21 22 22 23 23 23 24 23 23 24 24 25 24 24 23 23 23 22
3 1 3 3 2 3 6 2 4 4 0 1 4 3 7 9 5 1 3 6 6 8 9 9 10 10 9 7 8 9 8 10 14 21 28 29 30 31 31 30 29 29 27 25 23 20 19 16 14 12 11 10 8 8 7 5 4 3 3 3 3 3 4 4 4 5 6 7 8 10 12 14 15 16 18 20 21 22 22 22 23 23 22 23 23 23 23 22 23 24 24 23 21 22 23 24 24
3 2 2 4 3 3 4 4 2 1 2 4 4 5 11 13 7 1 4 6 7 9 11 11 10 9 9 8 8 9 9 9 11 21 29 30 31 30 31 31 30 29 27 25 23 21 19 17 15 12 11 10 9 9 7 6 5 4 4 4 3 4 5 5 5 6 6 7 9 10 13 14 15 17 19 20 21 22 23 23 24 23 23 23 23 23 23 23 23 22 23 22 19 19 21 23 25
3 3 3 4 3 4 5 5 2 2 2 5 3 7 15 18 15 8 6 7 9 13 12 11 10 10 9 9 9 10 11 12 14 21 27 30 30 30 31 31 31 30 28 26 23 20 19 17 15 13 12 11 10 10 8 7 6 5 4 4 4 4 5 5 5 7 7 8 9 11 13 15 16 18 19 20 21 22 23 24 24 25 25 25 25 25 24 23 24 23 22 21 21 21 22 24 25
6 5 4 4 5 5 6 6 4 1 2 7 8 10 14 17 18 15 7 7 10 14 11 9 10 10 9 10 11 12 13 14 15 21 25 28 30 30 31 31 32 31 29 27 24 22 20 18 16 14 13 12 11 11 10 8 6 5 4 4 4 5 6 6 6 7 7 8 9 11 14 16 16 18 19 20 22 22 23 24 25 26 26 26 26 26 25 24 24 23 21 22 24 24 22 23 25
5 4 4 5 5 7 6 4 4 0 2 9 9 9 14 16 18 18 10 5 10 16 12 11 12 10 10 11 13 14 15 12 12 18 24 28 30 31 32 33 33 32 30 29 27 25 22 20 18 16 14 13 13 12 11 9 7 5 5 4 5 5 6 6 6 7 8 8 10 12 15 16 17 18 19 20 21 22 22 23 25 26 26 27 27 26 25 25 23 23 23 23 23 22 20 19 21
4 5 4 4 5 7 7 2 4 1 2 7 6 6 14 16 16 16 11 7 15 18 14 14 15 12 10 12 15 15 12 8 9 16 22 27 30 32 33 34 35 34 33 32 29 27 23 21 19 16 15 14 14 12 10 8 6 5 5 5 6 6 6 7 7 8 8 9 11 13 15 16 17 18 19 20 21 21 22 24 25 26 27 27 27 27 26 26 25 23 22 21 19 18 19 17 16
3 3 2 4 4 5 6 3 3 1 2 5 6 7 14 18 17 17 16 16 19 16 12 15 15 13 11 13 15 13 11 9 11 14 19 26 29 31 33 34 36 36 34 33 30 27 25 22 20 17 15 15 13 12 10 8 6 5 5 5 7 7 6 7 8 9 10 11 12 14 15 17 18 19 20 21 22 22 23 25 26 27 27 27 27 28 28 27 26 23 19 18 19 18 18 16 13
3 3 3 5 3 1 4 4 3 1 2 4 6 9 13 16 16 17 17 16 17 14 10 13 13 13 14 14 13 12 14 15 14 14 16 21 26 28 31 33 35 34 34 34 32 29 27 24 22 19 16 14 12 11 10 8 6 5 5 5 6 8 7 8 9 10 11 13 14 15 16 17 19 20 21 22 23 24 25 25 27 27 28 28 27 28 28 27 25 22 18 17 18 18 17 14 11
3 5 6 6 4 5 6 3 3 2 1 3 6 10 10 7 9 13 7 4 10 11 10 13 12 11 11 10 11 13 15 16 16 16 15 17 22 27 31 33 34 35 35 36 35 31 28 25 22 19 16 13 12 11 10 8 8 6 6 6 7 7 8 8 9 10 12 13 15 16 16 17 18 20 21 23 24 25 25 26 26 27 27 27 27 27 27 26 24 21 18 17 16 17 19 19 14
3 6 11 10 7 7 4 3 4 3 3 2 4 7 7 2 4 10 4 3 6 5 7 13 11 9 9 10 11 13 14 14 15 15 14 17 22 26 30 33 34 36 37 38 36 33 29 25 22 19 16 13 12 11 10 10 9 7 6 6 7 7 9 10 9 11 13 15 16 16 17 17 18 20 21 23 24 25 25 25 25 26 26 27 27 26 25 25 23 21 19 18 17 17 19 21 19
2 4 7 8 5 4 2 1 2 0 3 2 3 2 8 3 2 8 5 4 9 7 9 14 10 7 9 11 12 11 12 12 12 12 14 17 21 25 29 33 36 37 37 38 36 33 30 25 23 21 17 14 12 11 11 10 9 8 7 7 7 8 10 11 11 12 14 15 17 17 18 18 19 20 22 23 24 25 26 26 26 26 27 28 28 27 26 25 24 23 21 19 18 17 17 20 22
4 3 4 6 6 5 4 3 1 3 2 3 1 3 8 8 6 9 8 7 11 11 13 18 13 8 10 12 11 12 13 12 11 12 14 17 22 27 30 33 36 36 36 37 37 35 30 26 24 21 17 14 13 12 11 10 9 8 7 7 8 8 10 12 12 13 15 16 17 18 18 19 20 21 23 24 24 25 26 27 27 27 28 29 29 29 30 29 26 24 23 20 19 19 17 20 23
4 3 5 6 6 5 4 4 2 1 3 4 4 4 5 11 5 3 3 6 11 13 14 18 16 10 9 11 12 12 12 11 11 13 15 17 22 29 32 33 35 35 37 39 39 36 31 27 25 21 18 15 13 12 11 10 9 8 7 7 9 9 10 12 13 14 15 16 17 18 19 20 21 23 24 25 26 26 26 27 28 28 29 30 31 32 32 32 30 28 25 22 20 20 19 20 24
3 6 6 5 5 5 4 3 2 2 2 7 7 7 4 10 4 4 2 3 9 12 12 15 14 9 8 9 11 10 9 8 11 13 14 16 22 28 30 31 32 34 37 39 39 36 32 29 26 22 18 15 13 12 11 10 9 8 8 8 9 10 10 11 13 15 15 16 18 19 19 21 23 24 25 26 26 27 27 28 28 29 31 32 32 32 33 33 33 31 28 25 23 24 23 23 26
6 6 5 6 5 4 3 1 3 1 5 8 8 12 9 8 3 6 4 5 9 9 8 10 10 8 8 9 9 8 7 8 10 11 10 12 19 24 27 29 31 33 35 38 38 36 33 30 27 23 18 15 14 13 11 10 9 8 8 8 9 10 10 11 13 15 16 17 19 20 21 23 25 26 27 27 28 28 28 29 30 31 32 33 33 33 34 34 34 32 30 28 26 25 26 25 27
5 4 4 3 3 3 4 4 3 1 6 5 4 8 9 9 6 4 5 6 7 9 8 10 11 10 10 8 7 7 7 8 8 8 7 9 13 19 25 28 29 32 35 37 38 37 34 30 27 23 19 15 14 13 11 10 9 8 8 8 9 9 10 11 13 15 16 17 19 21 23 25 27 28 28 28 29 29 30 31 32 32 33 34 35 36 36 35 34 33 31 29 27 26 27 26 28
3 4 5 3 3 3 3 3 1 3 7 3 3 3 5 12 11 6 8 10 10 10 10 10 10 10 9 6 6 6 6 7 7 7 8 9 11 14 22 27 28 32 36 37 38 36 34 31 28 24 19 16 14 13 11 10 9 8 8 8 9 9 9 11 12 14 15 17 18 20 23 25 27 29 29 30 31 30 31 32 33 33 34 36 36 37 37 35 34 32 31 30 29 28 28 28 30
5 5 5 3 2 1 3 4 2 5 8 3 3 3 4 9 8 11 16 17 15 12 11 10 8 9 8 4 4 5 5 7 7 7 8 10 11 14 21 26 28 31 34 36 37 36 34 31 28 24 19 16 14 13 11 10 9 9 8 8 8 8 9 10 12 14 15 17 18 20 22 24 27 29 30 31 31 31 31 32 33 34 35 35 36 36 35 34 32 31 31 31 31 30 29 30 32
4 4 5 5 5 4 4 4 4 7 7 4 1 2 4 5 3 8 14 13 12 11 10 8 7 8 5 3 3 4 5 6 6 7 10 11 12 16 21 25 28 30 33 35 36 35 34 31 29 24 19 16 15 13 12 11 10 9 8 8 7 8 9 11 12 14 15 17 19 20 23 25 27 30 31 32 32 31 32 32 33 34 34 34 34 33 32 32 31 30 31 32 33 31 30 32 32
2 3 4 3 5 5 3 3 4 1 5 5 3 4 6 4 2 5 5 4 7 10 8 6 10 11 5 4 6 5 6 6 6 8 10 10 12 16 20 23 27 29 31 34 35 36 34 32 29 24 19 17 15 13 12 11 10 9 8 7 7 8 9 11 13 14 16 17 19 21 23 25 27 30 32 33 33 33 33 33 34 35 34 33 32 31 30 31 30 30 31 32 33 31 30 33 33
3 2 3 4 4 5 2 3 1 4 3 7 2 5 11 6 4 5 4 4 9 9 6 8 13 11 6 6 7 7 7 7 7 9 9 9 11 16 21 24 27 29 31 34 36 36 35 32 29 24 19 17 15 13 13 11 10 9 7 6 7 8 9 11 13 15 16 18 20 22 24 26 28 29 31 33 34 35 35 35 36 37 36 34 32 30 30 30 30 30 31 31 32 31 30 33 33
6 3 5 3 2 4 3 2 3 2 5 6 4 11 17 12 7 1 4 6 12 10 7 10 12 8 7 8 8 8 8 6 7 8 8 8 11 16 21 25 29 31 33 35 36 36 34 32 29 24 20 18 15 14 13 11 10 8 6 6 6 8 10 11 13 15 17 18 21 22 24 26 28 29 31 33 34 35 36 37 37 38 38 35 31 29 29 29 29 30 30 30 31 32 32 34 34
5 4 3 3 3 2 2 2 3 4 4 5 10 16 18 14 9 4 4 10 12 10 9 10 11 10 9 9 10 10 7 5 7 8 8 9 11 16 21 24 27 31 32 34 36 35 33 31 27 22 19 17 15 14 12 10 9 7 6 6 6 8 10 12 13 15 17 19 21 23 24 26 28 29 31 32 34 36 37 38 36 36 36 33 31 29 28 28 28 28 29 29 29 30 32 34 33
2 1 1 2 2 4 3 3 3 3 3 5 12 15 16 10 6 6 9 12 11 9 9 10 12 12 10 9 10 10 8 7 8 8 9 10 11 16 22 25 27 30 31 33 35 34 32 29 24 21 18 17 15 13 12 10 8 6 5 5 7 8 10 12 13 15 17 19 21 22 24 26 27 29 31 32 34 35 36 36 35 34 34 33 32 30 28 27 27 27 27 28 29 29 30 32 31
4 3 3 2 1 2 1 1 2 3 4 4 7 12 16 7 7 7 9 9 10 10 9 10 11 11 10 10 10 9 8 8 8 8 10 10 11 15 21 24 25 27 29 32 33 33 31 27 24 21 19 17 15 13 12 9 7 5 5 5 6 8 10 12 13 15 18 19 20 22 24 26 27 29 31 32 33 33 33 33 33 33 32 31 31 29 27 26 26 27 27 27 29 29 29 30 30
9 8 8 9 6 4 2 5 3 3 4 5 4 10 18 7 7 5 6 6 8 10 10 10 9 11 11 10 10 9 8 9 10 10 10 9 9 13 18 22 24 26 28 31 32 32 30 27 24 21 19 17 15 13 11 8 6 5 4 5 6 8 10 12 13 15 17 19 20 22 23 25 27 29 31 31 31 31 31 30 30 30 29 28 28 28 27 25 25 28 28 28 27 28 29 30 30
Wind_Direction
155 162 173 170 161 156 110 63 98 329 76 81 286 171 232 191 129 163 168 192 222 290 249 105 89 94 105 119 136 141 126 168 168 141 194 142 108 85 91 90 91 89 86 83 74 71 65 58 48 46 49 50 53 55 55 57 54 49 45 39 37 32 31 32 31 32 27 23 19 13 10 7 2 357 349 343 339 336 333 328 322 313 305 301 301 301 299 300 301 303 308 309 307 307 304 304 306
148 165 178 185 177 169 211 64 104 332 58 101 224 177 228 11 177 182 185 190 166 151 128 100 94 80 67 84 111 121 85 356 187 140 107 146 120 78 98 94 98 98 92 91 85 82 75 66 56 51 53 54 55 56 57 56 55 53 49 45 42 36 32 28 26 26 28 28 24 21 20 18 15 11 4 360 355 350 345 338 333 325 316 310 308 307 302 302 300 297 298 299 300 303 305 300 295
124 168 163 181 166 48 94 44 94 109 81 141 242 226 186 156 202 206 200 169 145 149 137 108 93 77 68 71 103 97 102 318 227 132 77 152 150 83 101 97 98 99 98 98 92 90 80 73 65 61 60 60 59 59 60 56 56 54 50 48 45 42 38 33 24 16 16 14 14 14 17 17 14 13 10 10 8 3 356 350 346 334 326 321 315 312 311 310 307 301 297 291 291 295 298 300 298
131 165 244 195 70 37 63 43 141 127 123 187 241 235 189 174 194 210 190 155 148 150 150 137 72 30 97 120 175 75 139 223 226 157 109 145 152 116 106 101 104 107 112 108 102 96 85 80 76 72 67 66 65 63 63 60 57 53 51 48 44 44 40 37 31 23 16 8 8 4 10 13 8 7 3 5 10 10 5 1 357 345 342 336 324 320 318 316 316 311 305 299 297 296 291 293 299
147 107 235 172 108 63 97 75 113 107 174 178 159 234 208 183 167 159 163 163 168 165 176 150 106 313 8 109 171 158 148 123 125 149 132 138 143 126 113 107 111 114 116 113 111 104 93 89 85 81 76 72 71 69 67 65 62 59 56 50 46 43 39 39 34 30 24 17 14 7 9 9 6 6 360 359 2 2 0 1 359 349 347 340 329 328 325 321 320 318 313 308 305 305 297 292 292
146 101 69 98 95 129 129 108 119 148 212 169 152 222 190 176 164 152 154 186 228 208 184 167 149 152 116 327 197 187 178 129 130 144 142 146 144 131 120 114 115 114 114 115 116 110 101 98 95 90 85 81 77 75 72 70 69 66 64 58 53 48 43 40 36 33 28 22 17 14 12 6 2 358 355 353 350 348 341 344 347 340 341 339 335 332 332 331 325 320 319 315 311 311 307 300 295
160 136 46 79 63 34 110 143 161 187 194 169 189 185 168 174 165 147 155 185 225 212 175 185 157 126 116 280 158 3 263 168 146 152 151 146 142 134 126 120 116 111 111 114 114 111 106 103 101 96 91 88 83 79 75 72 71 69 67 63 58 55 51 47 43 37 31 26 20 18 15 12 6 357 352 347 345 344 336 334 332 331 340 342 342 337 334 336 327 321 321 319 315 310 306 303 300
130 191 6 93 37 26 86 135 183 201 154 222 254 175 169 174 163 154 169 182 187 192 161 176 170 122 169 72 140 354 109 157 153 151 148 142 140 134 129 124 117 111 110 110 109 108 106 102 99 97 93 90 87 84 79 75 72 68 66 62 59 55 53 50 48 43 37 33 25 20 17 14 8 1 355 347 343 343 339 337 333 329 330 325 329 330 328 334 328 319 318 317 313 309 302 297 296
60 37 105 81 71 35 46 65 206 236 262 264 252 208 181 170 163 161 170 191 202 161 161 174 196 221 161 104 125 308 128 145 146 147 145 142 139 134 130 123 116 112 109 108 106 105 103 101 96 94 90 87 85 82 80 76 72 69 65 60 56 53 50 48 45 43 39 35 30 25 20 16 11 6 359 352 345 341 337 336 336 332 325 315 313 315 314 320 319 312 308 304 305 307 302 295 291
38 24 130 77 80 41 347 266 231 245 243 253 250 220 177 170 165 160 167 191 186 149 167 159 109 134 141 143 161 286 158 152 149 147 146 145 139 135 129 119 115 111 109 106 102 101 98 98 94 91 88 85 82 78 75 71 68 65 62 58 54 51 46 42 40 37 35 31 28 24 21 18 13 9 3 357 351 345 342 338 336 334 330 323 317 314 310 308 304 301 299 298 300 302 302 299 292
37 357 92 78 76 121 233 230 248 255 262 292 270 233 178 168 150 133 151 176 177 146 170 165 142 143 127 173 248 183 163 161 157 149 147 146 141 136 129 119 115 110 108 105 101 99 96 95 93 91 88 84 83 79 74 69 65 60 57 54 50 48 45 41 38 34 31 28 24 23 19 17 13 10 6 360 356 353 349 347 344 340 335 329 323 320 315 310 305 302 302 301 301 301 303 302 295
85 334 65 88 139 194 212 203 245 269 302 314 217 237 166 156 149 160 168 169 175 165 199 196 181 141 128 244 251 166 167 170 163 151 148 146 142 137 130 123 118 113 109 106 105 102 97 95 93 90 87 85 82 79 76 71 65 60 55 51 48 45 43 40 38 35 32 29 25 22 18 17 14 11 8 3 359 355 352 351 350 348 343 336 330 325 320 315 312 308 305 303 301 300 300 300 296
129 157 91 116 169 171 177 179 261 300 307 255 195 209 141 155 184 185 162 144 162 170 225 196 160 119 142 236 208 167 182 178 162 151 149 146 144 139 132 126 121 115 111 109 107 104 101 97 93 89 86 82 79 77 75 72 66 62 58 53 49 45 42 39 37 35 33 31 28 24 21 18 15 13 11 8 3 358 355 353 352 351 348 343 339 333 326 321 317 313 309 305 303 302 299 297 294
140 151 114 129 91 116 162 178 271 215 252 247 185 164 137 163 210 176 147 152 185 181 219 174 153 135 149 190 208 204 191 180 163 154 152 147 146 141 137 131 125 121 114 111 108 104 101 96 94 89 85 82 78 75 72 70 67 63 59 55 51 47 43 40 36 35 32 32 29 27 24 21 18 16 13 10 7 3 359 356 356 353 348 344 341 338 333 328 324 320 315 309 305 302 300 297 294
133 127 90 107 53 20 182 232 210 179 238 218 147 141 112 5 152 159 161 171 206 200 96 154 161 185 186 175 206 206 185 178 166 159 154 149 148 145 143 136 130 125 118 112 107 104 100 96 93 89 86 83 78 75 72 70 67 62 60 56 53 50 46 43 39 37 34 32 30 28 25 24 22 18 16 13 10 6 2 360 359 357 351 346 343 339 336 333 329 326 321 316 310 304 301 298 296
121 113 69 95 125 208 199 208 131 143 248 211 139 136 117 323 120 155 224 152 167 184 154 179 180 228 183 181 240 190 177 173 167 163 159 153 149 147 145 140 135 130 123 115 109 105 102 98 95 91 87 82 78 75 72 69 67 62 59 56 54 50 47 43 39 36 33 31 28 26 24 22 20 18 16 13 11 8 4 2 0 358 353 349 345 342 338 335 332 329 324 320 316 310 305 301 299
59 81 71 92 157 204 195 187 178 175 242 232 213 173 143 258 299 159 272 81 111 170 247 232 231 308 195 242 292 174 170 169 168 165 164 160 156 151 145 141 139 135 128 118 110 106 104 101 96 93 89 84 78 75 70 66 64 60 58 55 52 48 44 39 35 32 28 26 23 21 19 17 17 14 13 11 10 8 5 3 360 357 353 350 347 344 341 337 334 330 327 324 319 315 311 306 302
52 79 95 141 172 200 186 184 196 172 221 206 196 182 150 184 208 170 114 53 70 141 257 280 301 291 245 270 188 163 165 167 169 167 167 167 166 159 149 145 142 138 132 123 115 109 106 102 99 97 91 86 79 74 69 65 61 58 57 54 51 46 43 38 32 29 25 23 20 17 15 14 13 11 10 9 8 7 5 3 360 357 354 350 348 346 342 340 337 332 329 325 322 318 315 312 309
83 112 83 231 195 208 196 179 192 179 199 178 187 185 164 193 171 157 202 249 116 170 240 291 297 272 233 193 158 159 163 166 170 171 170 171 174 168 158 153 147 143 140 133 125 114 110 106 102 100 94 87 81 75 69 65 61 57 55 52 49 44 41 36 31 28 24 22 19 16 14 13 11 10 9 7 5 4 3 2 0 358 355 353 349 347 344 342 339 336 332 328 324 322 320 318 316
154 113 85 245 212 232 223 187 200 200 150 149 179 167 187 217 157 158 197 197 174 203 219 203 237 229 177 164 159 160 164 168 174 175 176 177 178 173 167 163 156 154 150 142 132 122 119 112 105 99 93 91 84 77 71 66 61 56 54 49 45 42 37 33 29 26 23 21 17 15 14 12 10 9 7 5 3 1 1 0 359 357 356 354 352 348 346 344 341 338 336 333 330 327 325 323 320
137 110 167 233 194 242 222 199 210 198 159 150 147 129 212 220 163 183 163 158 231 232 222 206 216 203 167 172 168 167 169 172 179 181 181 181 181 178 174 169 163 159 154 148 140 134 127 117 108 100 94 91 85 79 73 66 62 57 52 48 43 39 35 32 27 24 22 18 15 13 10 8 6 5 4 4 3 2 1 359 358 357 355 354 353 350 348 345 343 340 338 337 336 333 330 326 323
74 244 224 216 158 238 222 192 200 168 133 125 127 154 198 152 178 201 171 201 232 224 223 216 214 181 164 173 172 173 175 178 183 186 186 184 184 181 177 171 164 161 158 155 148 141 133 124 118 108 100 89 80 73 66 61 57 50 45 41 36 33 29 26 23 20 19 16 13 10 7 5 5 5 5 5 5 4 3 1 360 357 355 354 352 349 347 345 342 341 338 337 336 335 332 328 324
111 275 282 234 192 235 219 172 200 160 131 154 168 179 150 142 247 219 189 223 226 161 225 219 200 169 168 169 169 176 181 185 188 189 188 185 184 181 178 174 169 165 162 160 154 148 141 137 138 132 120 97 87 73 65 59 49 42 37 31 25 25 23 20 18 19 19 17 15 12 10 9 9 8 8 8 8 8 7 5 3 1 359 356 353 349 345 343 340 337 335 334 333 332 331 329 325
96 185 277 249 199 231 228 136 191 168 157 195 168 130 161 189 237 125 211 233 227 186 265 190 168 158 163 167 173 185 185 188 191 191 190 186 185 182 180 178 172 167 165 163 161 158 155 155 159 161 149 122 108 90 79 66 53 47 38 32 30 30 27 25 25 25 24 22 19 17 16 13 11 9 8 8 8 9 8 6 5 4 2 358 356 352 347 344 340 336 333 332 331 329 328 326 324
83 161 240 221 228 251 282 3 193 182 195 157 118 184 224 205 203 285 240 238 227 205 126 133 148 149 165 177 182 188 187 191 192 192 192 188 184 183 182 179 173 170 170 168 168 167 167 168 172 178 172 146 132 116 106 88 72 61 51 44 42 37 31 31 29 28 27 25 23 20 18 15 12 10 9 8 7 7 6 6 6 3 2 359 357 355 351 346 342 338 334 331 329 327 325 323 320
176 166 195 189 274 287 333 301 229 172 212 122 151 244 267 259 302 270 253 240 196 142 120 142 150 157 179 183 186 188 188 191 191 191 191 187 184 182 182 179 177 176 175 173 172 173 173 178 184 188 186 165 153 140 127 109 90 70 62 54 47 42 34 33 31 29 28 26 24 21 19 16 13 11 9 7 5 5 4 5 4 1 0 358 356 354 351 348 345 342 337 331 328 325 323 321 318
168 154 189 197 285 309 353 296 290 10 215 172 195 249 278 328 338 255 264 219 143 130 132 162 162 177 187 186 192 191 192 194 190 187 187 188 188 186 183 181 181 178 176 177 176 178 180 186 192 194 192 176 168 156 146 132 107 77 67 59 49 42 36 35 31 30 30 26 24 19 18 15 13 11 9 7 6 5 5 4 2 0 358 357 355 351 349 348 346 344 340 334 328 324 321 319 317
131 132 219 264 327 306 304 294 286 285 230 180 178 246 284 15 256 239 248 104 149 145 160 182 182 192 191 190 193 192 199 197 190 186 187 192 192 189 186 184 182 178 179 180 178 181 186 191 195 197 194 184 178 168 161 160 141 103 78 61 48 40 34 30 26 26 25 23 21 16 15 13 12 11 9 8 7 5 5 3 2 0 357 355 353 349 349 347 344 343 341 337 332 327 321 319 317
97 102 258 300 357 334 245 284 282 201 213 175 151 272 262 199 229 239 168 127 145 144 179 193 197 201 194 197 195 198 203 195 193 196 196 194 192 190 188 186 183 180 181 182 181 184 190 193 194 196 194 191 183 177 179 183 184 160 88 58 44 33 27 20 15 16 17 17 15 13 12 10 9 9 7 6 6 4 3 1 360 358 356 353 351 349 348 347 344 341 339 336 335 331 324 320 318
80 68 73 313 355 338 242 358 16 163 189 170 141 284 257 213 232 241 127 150 139 156 206 199 205 209 200 203 201 207 204 197 201 203 201 196 194 192 190 188 187 184 181 181 184 186 191 193 195 197 195 195 188 186 193 196 201 195 94 29 27 17 17 11 6 8 10 10 9 9 8 6 5 5 4 4 3 2 360 359 357 356 354 351 350 349 347 346 343 339 338 336 333 329 322 318 315
100 27 53 20 349 290 284 338 123 168 187 144 131 269 270 247 244 239 168 168 161 190 218 202 209 212 206 209 207 212 207 207 209 205 203 200 197 195 193 190 189 188 183 182 186 188 192 193 195 198 197 197 193 194 202 205 212 220 280 331 354 2 8 4 360 2 4 4 2 3 2 0 0 1 1 1 0 359 357 357 356 353 351 350 348 348 346 343 340 337 337 335 330 325 320 317 313
39 339 308 340 209 271 298 275 176 210 308 104 143 237 275 273 266 249 171 173 183 209 222 209 215 213 211 212 208 218 216 214 214 211 209 205 201 199 196 194 190 190 188 186 188 189 193 194 196 199 199 200 198 202 209 211 220 239 271 304 323 341 357 352 351 355 358 358 355 355 355 354 355 357 358 359 358 357 356 355 353 351 349 347 345 345 344 341 338 334 334 334 328 323 320 318 313
2 50 256 269 233 281 308 285 208 227 310 199 209 233 281 276 280 330 170 185 197 223 231 219 219 218 213 214 211 217 217 215 217 216 212 207 204 201 198 197 192 191 191 190 189 190 193 194 197 200 200 202 203 208 213 217 228 241 258 280 298 318 337 337 339 347 352 351 347 347 349 350 351 353 355 356 356 354 353 351 349 348 346 344 342 342 342 340 337 333 330 330 325 320 319 317 314
323 24 251 252 231 260 299 294 270 172 166 221 227 233 256 264 269 231 185 196 202 225 234 224 222 221 214 213 215 217 216 216 216 214 211 205 203 200 198 197 193 192 192 193 194 195 195 195 198 200 201 204 206 212 215 220 226 235 249 266 285 309 325 328 332 340 346 343 340 342 345 347 348 350 351 351 351 349 348 347 345 345 343 341 340 340 340 339 337 332 327 324 321 317 315 314 313
232 243 251 276 257 241 253 266 276 104 202 235 215 239 253 264 271 254 201 192 213 229 232 227 225 222 217 213 216 219 218 221 219 211 207 205 202 198 196 194 192 192 192 193 195 196 196 196 198 199 202 204 207 212 215 221 227 236 249 263 283 310 320 321 326 330 336 336 336 338 340 344 345 346 346 346 346 345 345 344 342 342 340 340 338 337 338 336 334 331 325 320 316 313 311 310 310
190 212 200 233 257 257 238 239 260 166 253 256 231 240 255 262 270 267 237 189 223 242 237 234 234 224 217 215 219 220 220 225 220 210 206 205 203 198 195 193 193 193 193 194 194 194 194 195 197 199 202 204 207 211 214 221 229 239 251 266 285 311 314 309 316 321 327 331 333 334 336 340 341 342 342 343 344 343 343 341 339 339 338 337 336 335 333 331 329 326 320 315 313 311 309 309 310
140 152 181 224 236 266 255 234 284 166 210 262 243 243 260 260 263 269 263 198 233 249 240 236 236 227 217 214 221 221 223 227 212 207 208 207 205 199 196 194 192 192 194 194 193 193 195 195 197 199 200 203 207 209 213 219 229 243 261 280 295 311 308 300 308 317 323 328 331 331 332 335 338 340 341 342 342 341 340 338 337 336 335 334 332 329 327 325 323 319 316 313 311 309 306 306 310
113 156 200 253 227 254 268 258 312 345 172 266 277 272 266 261 261 266 266 238 243 245 236 237 235 229 220 216 224 223 223 220 196 205 206 205 205 200 197 195 192 192 192 193 194 194 194 195 198 198 198 203 207 211 215 223 233 250 270 287 301 309 306 302 310 317 319 323 326 326 328 333 335 337 339 340 341 339 338 336 335 333 332 331 327 324 322 321 320 318 316 312 307 302 296 296 305
115 139 175 263 238 267 294 336 349 2 184 271 296 288 272 267 263 259 252 245 252 249 227 232 235 228 222 219 225 223 217 214 204 206 203 202 204 200 198 196 194 194 193 194 195 195 194 195 198 197 199 204 207 212 217 226 237 254 272 287 301 306 307 306 311 315 317 321 323 324 328 332 334 336 338 338 337 337 336 334 333 330 328 327 324 321 319 318 317 316 311 306 303 297 289 287 290
151 148 176 252 243 262 284 304 330 227 204 280 290 279 269 266 263 256 249 245 259 264 238 233 231 223 224 221 221 215 212 215 211 209 203 201 202 199 198 197 195 195 194 194 195 194 195 196 198 197 200 205 207 213 218 226 235 250 269 285 295 297 301 306 309 312 316 318 320 324 330 333 334 336 336 336 335 334 334 332 330 327 324 323 320 316 314 312 310 308 303 299 299 297 293 288 278
238 196 206 238 234 221 237 280 320 299 331 330 309 292 271 256 255 255 264 275 269 266 250 247 237 224 228 226 222 215 213 215 210 208 202 197 200 200 199 197 196 195 195 196 196 195 196 198 199 198 201 205 208 213 216 222 230 242 259 275 287 292 298 302 304 309 313 313 315 324 330 332 333 333 333 333 333 331 330 329 326 322 320 318 315 309 305 304 301 297 295 293 291 291 294 293 283
290 231 216 224 231 232 245 342 359 356 335 331 358 318 284 274 262 261 285 334 278 261 247 251 240 221 225 227 226 220 217 217 212 208 200 198 200 200 199 198 196 196 197 197 197 196 198 199 198 198 201 205 208 211 214 220 227 238 251 263 277 288 295 296 296 302 308 310 313 322 328 330 331 331 332 332 331 329 326 324 321 317 315 312 309 303 297 295 293 291 290 288 285 284 288 290 286
288 247 209 208 207 204 203 35 22 283 260 289 45 312 275 281 250 257 263 277 277 278 269 264 248 210 215 225 226 220 219 217 212 207 199 199 199 198 200 199 198 198 197 197 197 198 199 198 197 197 200 205 207 209 213 219 225 236 252 264 274 281 287 294 302 305 309 313 317 323 328 331 332 330 331 330 329 326 322 321 318 316 313 309 306 300 293 292 289 290 290 286 284 283 281 281 283
240 239 128 140 151 166 174 136 173 235 287 314 154 194 274 274 237 246 248 255 274 272 268 272 263 222 212 225 226 221 219 211 204 205 201 201 200 199 201 200 199 199 196 195 197 198 197 196 196 196 199 204 207 209 214 221 227 237 251 263 271 275 281 294 307 310 312 315 319 324 326 328 331 330 330 328 326 323 320 319 317 314 311 308 305 299 295 295 293 291 291 286 284 282 275 274 279
239 193 116 119 131 142 141 125 181 287 12 300 237 161 275 275 239 257 258 230 259 260 251 260 262 243 219 226 229 224 221 209 202 204 204 203 201 201 202 199 199 198 195 195 197 198 196 195 195 195 197 202 206 210 215 221 229 240 250 260 270 276 283 295 305 308 311 314 317 321 321 323 328 329 328 326 323 321 319 317 314 311 308 305 303 299 298 298 296 293 290 287 282 279 274 271 273
185 136 98 73 73 77 79 111 138 40 328 261 235 165 227 274 223 116 73 192 237 251 247 250 257 253 233 232 233 226 218 208 206 209 208 205 203 202 200 198 199 198 195 195 197 197 196 194 193 193 197 202 206 211 215 221 229 239 250 260 272 282 290 299 306 309 313 314 314 316 317 321 327 327 325 323 321 319 317 314 311 308 305 304 301 299 299 299 298 295 291 286 281 278 274 269 268
133 112 72 51 44 49 49 62 90 43 266 258 231 178 189 273 245 151 178 198 206 221 241 253 255 254 242 235 233 222 210 208 209 212 208 201 200 198 196 197 198 196 195 196 196 196 195 193 192 193 197 201 206 213 217 223 230 240 252 261 272 284 294 302 307 310 314 315 314 315 318 324 326 324 321 320 318 317 315 311 308 305 304 303 301 300 299 299 297 295 291 288 282 276 272 269 267
108 94 74 42 345 10 21 358 51 246 257 257 225 176 185 245 247 187 230 250 219 204 217 236 238 242 242 232 227 218 208 209 208 204 195 184 186 189 192 196 195 193 195 196 196 195 194 192 192 192 195 201 208 214 220 226 233 242 253 262 272 284 294 301 304 306 311 314 313 316 322 325 325 321 319 317 317 316 312 309 306 304 304 303 302 302 300 298 296 293 290 286 282 276 271 268 266
99 98 86 57 325 348 345 309 137 225 258 244 153 145 220 246 245 234 252 260 242 220 217 220 219 229 234 221 214 216 207 207 202 194 187 183 183 186 191 193 192 192 195 195 194 193 193 192 192 192 195 202 209 215 222 229 236 244 253 262 275 286 294 300 301 303 309 311 311 315 320 321 319 317 316 314 314 313 309 306 305 304 303 303 303 302 300 298 295 291 288 284 280 276 272 267 264
159 145 125 135 144 59 277 272 280 270 271 260 147 152 248 269 258 221 224 233 229 222 226 222 216 225 229 215 202 207 211 207 200 193 190 192 193 192 193 192 192 194 194 193 191 191 191 191 192 194 195 201 209 215 223 230 238 246 254 264 277 287 295 302 303 306 312 313 312 314 317 316 313 312 311 310 311 309 305 303 303 303 302 303 302 300 297 294 291 287 285 282 279 275 271 268 265
175 159 140 154 154 166 225 235 252 276 289 288 226 187 226 263 264 208 216 234 234 226 225 223 240 247 241 252 230 213 219 210 198 199 199 201 199 194 193 194 194 195 193 190 189 189 190 190 192 194 195 200 207 214 222 231 238 245 254 266 280 290 300 307 308 313 317 315 314 315 316 314 312 311 310 311 310 307 304 303 303 303 302 302 300 296 293 290 288 285 283 280 277 274 272 268 266
197 133 120 168 178 170 208 220 196 240 316 288 230 220 230 221 240 230 223 247 242 236 229 221 247 249 233 254 253 232 226 212 198 205 207 206 199 194 195 196 195 194 191 189 189 188 189 189 192 196 197 200 207 213 222 231 238 245 256 268 283 296 305 309 313 319 320 315 316 316 316 314 313 313 312 312 311 308 307 307 307 306 303 301 298 294 290 288 286 283 281 279 275 273 271 269 267
161 145 172 204 181 139 148 270 32 69 285 272 249 259 273 282 268 238 194 203 231 237 226 222 241 245 229 241 247 237 231 215 203 209 207 200 195 196 198 196 194 192 191 190 189 189 189 189 191 193 195 199 205 214 223 230 237 245 258 273 291 304 309 313 317 321 319 317 319 319 317 316 315 315 314 313 312 310 310 310 310 308 306 303 298 295 291 287 285 283 278 276 275 274 272 271 270
130 189 210 179 119 96 111 254 347 25 248 270 292 271 276 281 274 280 114 197 233 233 218 227 242 247 239 241 244 242 236 218 211 213 207 199 196 199 198 197 195 193 191 190 188 188 190 190 191 192 193 198 204 213 222 228 236 246 261 280 298 308 310 316 321 321 318 319 322 321 319 318 318 317 315 313 312 311 313 313 312 311 309 305 299 295 292 288 285 283 279 276 276 277 275 274 274
125 201 202 116 143 161 114 169 228 250 236 272 283 275 274 265 252 264 207 209 226 228 220 234 244 242 239 241 245 245 236 215 214 213 206 203 202 200 197 195 194 193 191 189 186 186 188 188 190 192 194 198 204 212 220 225 234 247 267 287 302 310 314 323 324 320 320 322 324 323 321 320 319 317 315 313 313 314 315 315 312 310 308 304 299 294 292 290 286 283 282 279 279 280 278 277 276
54 286 10 48 165 170 170 168 183 211 202 261 279 280 277 253 194 202 221 212 213 214 215 227 233 234 232 231 239 240 225 217 217 211 207 208 205 201 197 193 191 190 188 185 184 183 183 183 185 188 191 196 203 211 217 222 231 248 271 290 305 314 322 327 324 321 323 325 324 323 323 321 318 316 315 315 315 315 314 313 311 308 305 302 299 294 292 291 287 283 282 281 283 283 279 278 278
164 186 185 218 182 125 215 231 127 148 180 231 262 271 273 258 143 175 213 206 201 197 203 218 224 231 231 225 230 230 219 219 216 211 211 208 202 197 193 191 188 185 183 182 181 179 179 181 183 186 190 195 202 208 214 220 227 246 273 293 310 323 328 325 323 325 327 327 326 325 323 320 317 316 316 316 315 315 313 312 310 307 302 299 297 295 294 294 290 286 284 283 286 286 282 280 279
174 190 191 193 184 136 198 249 218 156 192 206 200 258 268 259 113 158 197 184 200 196 199 213 215 222 228 226 228 223 218 221 217 215 211 201 196 188 185 184 181 180 180 179 178 176 176 179 182 187 192 196 201 206 209 218 227 244 274 302 317 326 328 325 326 328 328 328 328 327 325 320 316 316 318 317 316 317 315 310 305 302 298 295 296 296 297 297 293 291 289 288 288 286 283 281 279